TimeEST,TemperatureF,Dew PointF,Humidity,Sea Level PressureIn,VisibilityMPH,Wind Direction,Wind SpeedMPH,Gust SpeedMPH,PrecipitationIn,Events,Conditions,WindDirDegrees,DateUTC
12:53 AM,17.1,12.0,81,29.96,9.0,Calm,Calm,-,N/A,,Overcast,0,2013-02-05 05:53:00
1:32 AM,15.8,10.4,79,29.90,8.0,Calm,Calm,-,N/A,,Partly Cloudy,0,2013-02-05 06:32:00
1:53 AM,14.0,10.0,84,29.95,8.0,Calm,Calm,-,N/A,,Clear,0,2013-02-05 06:53:00
2:53 AM,12.9,9.0,84,29.96,7.0,Calm,Calm,-,N/A,,Clear,0,2013-02-05 07:53:00
3:53 AM,6.1,3.0,87,29.95,6.0,Calm,Calm,-,N/A,,Clear,0,2013-02-05 08:53:00
4:53 AM,8.1,3.0,80,29.94,4.0,Calm,Calm,-,N/A,,Haze,0,2013-02-05 09:53:00
5:53 AM,5.0,1.0,84,29.95,6.0,Calm,Calm,-,N/A,,Clear,0,2013-02-05 10:53:00
6:53 AM,3.9,-0.0,84,29.94,6.0,Calm,Calm,-,N/A,,Clear,0,2013-02-05 11:53:00
7:53 AM,5.0,1.0,84,29.94,5.0,Calm,Calm,-,N/A,,Clear,0,2013-02-05 12:53:00
8:53 AM,12.0,8.1,84,29.94,6.0,South,4.6,-,N/A,,Scattered Clouds,170,2013-02-05 13:53:00
9:53 AM,16.0,12.0,84,29.92,9.0,SSW,8.1,-,N/A,,Mostly Cloudy,200,2013-02-05 14:53:00
10:53 AM,19.9,12.9,74,29.89,10.0,South,8.1,-,N/A,,Scattered Clouds,190,2013-02-05 15:53:00
11:53 AM,23.0,12.0,63,29.88,10.0,SSW,10.4,-,N/A,,Mostly Cloudy,200,2013-02-05 16:53:00
12:53 PM,24.1,12.9,62,29.84,10.0,South,12.7,-,N/A,,Overcast,180,2013-02-05 17:53:00
1:53 PM,25.0,14.0,63,29.84,10.0,SSW,9.2,-,N/A,,Overcast,200,2013-02-05 18:53:00
3:53 PM,26.1,18.0,71,29.81,4.0,SSW,11.5,-,0.00,Snow,Light Snow,200,2013-02-05 20:53:00
4:53 PM,26.1,19.0,75,29.82,10.0,SSW,9.2,-,0.00,,Overcast,200,2013-02-05 21:53:00
5:44 PM,26.6,19.4,74,29.78,9.0,SW,9.2,-,N/A,,Overcast,230,2013-02-05 22:44:00
5:53 PM,26.1,19.9,78,29.83,10.0,SW,6.9,-,N/A,,Overcast,220,2013-02-05 22:53:00
6:53 PM,27.0,19.9,75,29.85,9.0,SSW,6.9,-,N/A,,Overcast,210,2013-02-05 23:53:00
7:41 PM,26.6,21.2,80,29.82,6.0,SW,10.4,-,N/A,,Haze,230,2013-02-06 00:41:00
7:53 PM,27.0,21.9,81,29.87,5.0,SW,6.9,-,N/A,,Haze,230,2013-02-06 00:53:00
8:34 PM,26.6,24.8,93,29.84,3.0,WSW,5.8,-,N/A,,Overcast,240,2013-02-06 01:34:00
8:53 PM,27.0,24.1,89,29.89,2.5,West,6.9,-,N/A,,Overcast,260,2013-02-06 01:53:00
9:08 PM,28.4,24.8,86,29.86,3.0,West,11.5,-,N/A,,Overcast,280,2013-02-06 02:08:00
9:18 PM,28.4,24.8,86,29.86,2.5,WNW,11.5,-,N/A,,Overcast,300,2013-02-06 02:18:00
9:30 PM,28.4,24.8,86,29.86,3.0,WNW,13.8,-,N/A,,Overcast,300,2013-02-06 02:30:00
9:53 PM,28.0,24.1,85,29.91,4.0,WNW,13.8,-,N/A,,Overcast,300,2013-02-06 02:53:00
10:19 PM,26.6,23.0,86,29.89,3.0,NW,15.0,20.7,0.00,Snow,Light Snow,320,2013-02-06 03:19:00
10:53 PM,26.1,21.0,81,29.95,5.0,NW,16.1,-,0.00,Snow,Light Snow,320,2013-02-06 03:53:00
11:33 PM,24.8,19.4,80,29.94,4.0,NNW,17.3,23.0,0.00,Snow,Light Snow,330,2013-02-06 04:33:00
11:53 PM,24.1,18.0,77,29.98,4.0,NW,13.8,-,0.00,Snow,Light Snow,320,2013-02-06 04:53:00